TimeHST,TemperatureF,Dew PointF,Humidity,Sea Level PressureIn,VisibilityMPH,Wind Direction,Wind SpeedMPH,Gust SpeedMPH,PrecipitationIn,Events,Conditions,WindDirDegrees,DateUTC
12:19 AM,73.0,70.0,90,30.01,3.0,Calm,Calm,-,N/A,,Overcast,0,2013-08-20 10:19:00
12:53 AM,73.0,70.0,90,29.99,6.0,Calm,Calm,-,0.00,Rain,Light Rain,0,2013-08-20 10:53:00
1:18 AM,73.0,70.0,90,30.00,3.0,South,3.5,-,0.00,Rain,Light Rain,190,2013-08-20 11:18:00
1:53 AM,72.0,70.0,93,29.98,3.0,Calm,Calm,-,0.00,Rain,Light Rain,0,2013-08-20 11:53:00
2:11 AM,72.0,70.0,93,29.99,2.5,Calm,Calm,-,0.00,Rain,Light Rain,0,2013-08-20 12:11:00
2:53 AM,71.1,69.1,93,29.97,2.0,West,3.5,-,0.00,Rain,Light Rain,260,2013-08-20 12:53:00
3:53 AM,71.1,69.1,93,29.97,3.0,WNW,5.8,-,0.00,Rain,Light Rain,290,2013-08-20 13:53:00
4:53 AM,71.1,69.1,93,29.97,9.0,WSW,6.9,-,0.02,Rain,Light Rain,250,2013-08-20 14:53:00
5:53 AM,71.1,68.0,90,29.97,10.0,WSW,3.5,-,0.01,,Overcast,240,2013-08-20 15:53:00
6:53 AM,71.1,68.0,90,29.98,10.0,West,6.9,-,N/A,,Mostly Cloudy,280,2013-08-20 16:53:00
7:53 AM,72.0,68.0,87,30.00,10.0,Calm,Calm,-,N/A,,Mostly Cloudy,0,2013-08-20 17:53:00
8:53 AM,75.0,66.9,76,30.00,10.0,Calm,Calm,-,N/A,,Mostly Cloudy,0,2013-08-20 18:53:00
9:53 AM,75.9,68.0,76,30.01,10.0,SSE,3.5,-,N/A,,Mostly Cloudy,150,2013-08-20 19:53:00
10:53 AM,75.9,66.0,71,30.01,10.0,WSW,8.1,-,N/A,,Mostly Cloudy,240,2013-08-20 20:53:00
11:53 AM,80.1,66.0,62,29.99,10.0,Calm,Calm,-,N/A,,Mostly Cloudy,0,2013-08-20 21:53:00
12:53 PM,82.0,64.9,56,29.98,10.0,ESE,4.6,-,N/A,,Mostly Cloudy,120,2013-08-20 22:53:00
1:53 PM,82.9,63.0,51,29.95,10.0,ENE,3.5,-,N/A,,Mostly Cloudy,70,2013-08-20 23:53:00
2:53 PM,82.9,62.1,49,29.94,10.0,East,5.8,-,N/A,,Mostly Cloudy,90,2013-08-21 00:53:00
3:53 PM,82.9,64.0,53,29.94,10.0,SE,4.6,-,N/A,,Mostly Cloudy,130,2013-08-21 01:53:00
4:53 PM,82.0,66.9,60,29.93,10.0,ENE,4.6,-,N/A,,Mostly Cloudy,70,2013-08-21 02:53:00
5:53 PM,81.0,70.0,69,29.93,10.0,North,5.8,-,N/A,,Mostly Cloudy,10,2013-08-21 03:53:00
6:53 PM,79.0,70.0,74,29.94,10.0,East,4.6,-,N/A,,Mostly Cloudy,80,2013-08-21 04:53:00
7:53 PM,77.0,70.0,79,29.95,10.0,Calm,Calm,-,N/A,,Mostly Cloudy,0,2013-08-21 05:53:00
8:53 PM,73.0,70.0,90,29.98,10.0,Calm,Calm,-,N/A,,Scattered Clouds,0,2013-08-21 06:53:00
9:53 PM,73.0,70.0,90,29.99,10.0,Calm,Calm,-,N/A,,Scattered Clouds,0,2013-08-21 07:53:00
10:53 PM,73.9,69.1,85,29.98,10.0,SW,3.5,-,N/A,,Scattered Clouds,230,2013-08-21 08:53:00
11:53 PM,73.0,69.1,87,29.97,10.0,Calm,Calm,-,N/A,,Scattered Clouds,0,2013-08-21 09:53:00